GW5510 Weather Reports


time (UTC)temp
C
wind
direction
speed
KPH
gust
KPH
rain 1hr
cm
rain 24hr
cm
rain mn
cm
humidity
%
barometer
mb
20260906215523 27 198 9.7 12.9 0.00 0.00 0.00 35 1022.5
20260906215021 28 190 3.2 4.8 0.00 0.00 0.00 33 1022.3
20260906214520 28 220 3.2 4.8 0.00 0.00 0.00 34 1022.5
20260906214015 28 164 9.7 9.7 0.00 0.00 0.00 32 1022.5
20260906213514 27 190 4.8 8.0 0.00 0.00 0.00 33 1022.4
20260906213009 27 166 4.8 6.4 0.00 0.00 0.00 34 1022.7
20260906212502 28 178 4.8 4.8 0.00 0.00 0.00 33 1022.7
20260906211957 28 209 4.8 6.4 0.00 0.00 0.00 33 1022.9
20260906211452 28 192 4.8 8.0 0.00 0.00 0.00 31 1022.5
20260906210947 28 188 4.8 6.4 0.00 0.00 0.00 32 1022.8
20260906210437 27 220 0.0 1.6 0.00 0.00 0.00 33 1022.8
20260906205936 28 165 8.0 9.7 0.00 0.00 0.00 33 1022.7
20260906205432 28 155 4.8 8.0 0.00 0.00 0.00 34 1023.0
20260906204928 28 224 1.6 1.6 0.00 0.00 0.00 33 1022.5
20260906204427 28 197 8.0 12.9 0.00 0.00 0.00 32 1022.9
20260906203926 28 200 11.3 14.5 0.00 0.00 0.00 30 1023.0
20260906203422 28 230 6.4 9.7 0.00 0.00 0.00 30 1023.2
20260906202919 28 210 4.8 8.0 0.00 0.00 0.00 32 1023.2
20260906202413 28 208 3.2 4.8 0.00 0.00 0.00 31 1023.2
20260906201913 28 146 11.3 14.5 0.00 0.00 0.00 31 1023.3
20260906201408 28 220 3.2 6.4 0.00 0.00 0.00 31 1023.2
20260906200903 28 207 4.8 6.4 0.00 0.00 0.00 32 1023.3
20260906200400 28 195 4.8 6.4 0.00 0.00 0.00 30 1023.3
20260906195859 27 249 4.8 6.4 0.00 0.00 0.00 32 1023.4
20260906195356 28 195 6.4 8.0 0.00 0.00 0.00 30 1023.6
20260906194852 28 164 6.4 12.9 0.00 0.00 0.00 30 1023.5
20260906194347 27 208 4.8 6.4 0.00 0.00 0.00 32 1023.5
20260906193842 28 169 4.8 6.4 0.00 0.00 0.00 32 1023.8
20260906193337 28 232 3.2 4.8 0.00 0.00 0.00 32 1023.6
20260906192833 28 220 4.8 6.4 0.00 0.00 0.00 32 1023.6
20260906192327 27 204 6.4 6.4 0.00 0.00 0.00 33 1023.8
20260906191826 27 195 8.0 8.0 0.00 0.00 0.00 32 1023.8
20260906191321 27 190 6.4 8.0 0.00 0.00 0.00 32 1023.8
20260906190815 27 169 4.8 6.4 0.00 0.00 0.00 31 1024.0
20260906190315 27 189 3.2 4.8 0.00 0.00 0.00 31 1024.3
20260906185809 27 215 4.8 8.0 0.00 0.00 0.00 32 1024.3
20260906185308 27 187 3.2 6.4 0.00 0.00 0.00 32 1024.1
20260906184803 27 206 8.0 9.7 0.00 0.00 0.00 33 1024.3
20260906184258 27 205 4.8 8.0 0.00 0.00 0.00 32 1024.3
20260906183754 27 209 8.0 9.7 0.00 0.00 0.00 32 1024.5
20260906183250 26 223 1.6 1.6 0.00 0.00 0.00 34 1024.6
20260906182749 27 215 8.0 9.7 0.00 0.00 0.00 33 1024.8
20260906182246 27 205 4.8 6.4 0.00 0.00 0.00 33 1024.6
20260906181746 27 210 6.4 8.0 0.00 0.00 0.00 32 1024.8
20260906181242 27 158 8.0 9.7 0.00 0.00 0.00 32 1024.9
20260906180737 27 180 6.4 8.0 0.00 0.00 0.00 31 1025.0
20260906180232 27 231 4.8 4.8 0.00 0.00 0.00 32 1025.1
20260906175730 27 151 4.8 6.4 0.00 0.00 0.00 31 1025.6
20260906175226 27 222 4.8 4.8 0.00 0.00 0.00 31 1025.4
20260906174724 27 210 3.2 4.8 0.00 0.00 0.00 30 1025.5
20260906174224 27 224 3.2 4.8 0.00 0.00 0.00 31 1025.4
20260906173719 26 249 1.6 1.6 0.00 0.00 0.00 33 1025.6
20260906173215 26 178 3.2 4.8 0.00 0.00 0.00 33 1025.8
20260906172714 26 211 1.6 4.8 0.00 0.00 0.00 33 1025.9
20260906172210 26 203 1.6 1.6 0.00 0.00 0.00 32 1026.0
20260906171709 25 233 3.2 4.8 0.00 0.00 0.00 34 1025.6
20260906171205 25 233 4.8 4.8 0.00 0.00 0.00 35 1025.8
20260906170701 25 217 1.6 1.6 0.00 0.00 0.00 34 1025.9
20260906170201 25 228 0.0 0.0 0.00 0.00 0.00 35 1025.9
20260906165657 24 228 1.6 1.6 0.00 0.00 0.00 36 1026.1
20260906165152 24 293 4.8 6.4 0.00 0.00 0.00 36 1026.0
20260906164651 23 245 0.0 0.0 0.00 0.00 0.00 37 1025.9
20260906164147 23 275 1.6 1.6 0.00 0.00 0.00 39 1026.0
20260906163642 23 294 3.2 4.8 0.00 0.00 0.00 39 1026.1
20260906163138 23 226 0.0 0.0 0.00 0.00 0.00 38 1026.1
20260906162635 23 262 3.2 4.8 0.00 0.00 0.00 38 1026.1
20260906162129 23 225 0.0 1.6 0.00 0.00 0.00 37 1026.3
20260906161624 23 242 1.6 1.6 0.00 0.00 0.00 37 1026.3
20260906161123 22 241 1.6 1.6 0.00 0.00 0.00 39 1026.1
20260906160622 22 239 1.6 1.6 0.00 0.00 0.00 38 1026.1
20260906160121 22 185 1.6 1.6 0.00 0.00 0.00 38 1026.1
20260906155619 22 233 0.0 0.0 0.00 0.00 0.00 38 1026.3
20260906155115 22 252 1.6 1.6 0.00 0.00 0.00 41 1026.3
20260906154610 21 229 0.0 0.0 0.00 0.00 0.00 43 1026.3
20260906154108 21 237 0.0 0.0 0.00 0.00 0.00 43 1026.1
20260906153608 21 236 0.0 0.0 0.00 0.00 0.00 44 1025.9
20260906153103 20 233 0.0 1.6 0.00 0.00 0.00 46 1025.8
20260906152557 20 246 1.6 1.6 0.00 0.00 0.00 50 1025.8
20260906152056 20 243 1.6 1.6 0.00 0.00 0.00 48 1025.9
20260906151546 20 242 1.6 1.6 0.00 0.00 0.00 50 1026.1
20260906151042 20 261 1.6 1.6 0.00 0.00 0.00 50 1025.8
20260906150537 19 319 3.2 4.8 0.00 0.00 0.00 50 1025.8
20260906150032 19 276 1.6 4.8 0.00 0.00 0.00 52 1025.9
20260906145530 18 258 1.6 4.8 0.00 0.00 0.00 51 1026.0
20260906145026 18 251 1.6 1.6 0.00 0.00 0.00 50 1026.1
20260906144520 18 259 1.6 1.6 0.00 0.00 0.00 51 1026.1
20260906144015 18 0 3.2 4.8 0.00 0.00 0.00 52 1026.0
20260906143510 18 271 1.6 4.8 0.00 0.00 0.00 51 1025.9
20260906143008 18 297 3.2 4.8 0.00 0.00 0.00 51 1025.9
20260906142506 18 288 3.2 4.8 0.00 0.00 0.00 52 1025.8
20260906142001 18 265 3.2 4.8 0.00 0.00 0.00 50 1025.8
20260906141455 18 272 1.6 1.6 0.00 0.00 0.00 51 1025.8
20260906140951 18 280 3.2 4.8 0.00 0.00 0.00 50 1025.8
20260906140445 17 253 4.8 6.4 0.00 0.00 0.00 51 1025.5
20260906135943 17 274 1.6 1.6 0.00 0.00 0.00 51 1025.8
20260906135442 17 257 4.8 6.4 0.00 0.00 0.00 51 1026.0
20260906134937 17 251 1.6 1.6 0.00 0.00 0.00 52 1025.8
20260906134432 17 254 1.6 1.6 0.00 0.00 0.00 52 1026.0
20260906133927 17 265 1.6 4.8 0.00 0.00 0.00 52 1025.3
20260906133423 16 258 1.6 1.6 0.00 0.00 0.00 53 1025.3
20260906132919 16 333 3.2 4.8 0.00 0.00 0.00 54 1025.5
20260906132414 16 259 6.4 8.0 0.00 0.00 0.00 53 1025.4
20260906131909 16 300 4.8 4.8 0.00 0.00 0.00 53 1025.4
20260906131404 16 285 3.2 4.8 0.00 0.00 0.00 52 1025.1
20260906130900 16 303 3.2 4.8 0.00 0.00 0.00 52 1025.1
20260906130359 15 334 8.0 9.7 0.00 0.00 0.00 53 1025.5
20260906125859 15 304 3.2 4.8 0.00 0.00 0.00 54 1025.3
20260906125356 15 236 0.0 0.0 0.00 0.00 0.00 54 1025.4
20260906124851 15 260 1.6 1.6 0.00 0.00 0.00 54 1025.4
20260906124347 15 277 1.6 4.8 0.00 0.00 0.00 53 1025.3
20260906123846 15 300 1.6 4.8 0.00 0.00 0.00 53 1025.5
20260906123341 15 305 3.2 4.8 0.00 0.00 0.00 53 1025.1
20260906122841 16 273 1.6 1.6 0.00 0.00 0.00 53 1025.3
20260906122335 16 256 1.6 1.6 0.00 0.00 0.00 53 1025.1
20260906121832 16 251 1.6 1.6 0.00 0.00 0.00 52 1025.0
20260906121328 16 273 1.6 4.8 0.00 0.00 0.00 52 1025.4
20260906120825 16 273 1.6 4.8 0.00 0.00 0.00 52 1025.4
20260906120320 16 255 1.6 1.6 0.00 0.00 0.00 51 1025.3
20260906115816 16 294 1.6 1.6 0.00 0.00 0.00 51 1025.3
20260906115311 15 278 1.6 4.8 0.00 0.00 0.00 53 1025.1
20260906114810 15 275 1.6 1.6 0.00 0.00 0.00 55 1024.9
20260906114305 15 268 1.6 4.8 0.00 0.00 0.00 55 1025.3
20260906113800 15 280 1.6 4.8 0.00 0.00 0.00 56 1025.3
20260906113254 15 235 0.0 0.0 0.00 0.00 0.00 55 1025.1
20260906112754 15 287 1.6 1.6 0.00 0.00 0.00 55 1025.0
20260906112251 15 231 0.0 0.0 0.00 0.00 0.00 57 1025.1
20260906111750 15 257 1.6 1.6 0.00 0.00 0.00 55 1024.8
20260906111249 15 252 0.0 1.6 0.00 0.00 0.00 55 1024.9
20260906110745 15 253 1.6 1.6 0.00 0.00 0.00 55 1024.8
20260906110241 15 255 0.0 1.6 0.00 0.00 0.00 54 1024.8
20260906105740 15 223 0.0 0.0 0.00 0.00 0.00 56 1024.9
20260906105236 15 220 0.0 0.0 0.00 0.00 0.00 54 1024.9
20260906104731 15 220 0.0 0.0 0.00 0.00 0.00 55 1024.6
20260906104230 16 220 0.0 0.0 0.00 0.00 0.00 56 1024.8
20260906103728 16 220 0.0 0.0 0.00 0.00 0.00 55 1024.9
20260906103222 16 220 0.0 0.0 0.00 0.00 0.00 54 1024.8
20260906102718 16 220 0.0 0.0 0.00 0.00 0.00 55 1024.9
20260906102217 16 220 0.0 0.0 0.00 0.00 0.00 54 1025.0
20260906101712 16 220 0.0 0.0 0.00 0.00 0.00 55 1025.1
20260906101207 16 220 0.0 0.0 0.00 0.00 0.00 54 1024.9
20260906100703 16 220 0.0 0.0 0.00 0.00 0.00 54 1025.0
20260906100203 16 220 0.0 0.0 0.00 0.00 0.00 54 1024.9
20260906095657 16 220 0.0 0.0 0.00 0.00 0.00 53 1025.0
20260906095153 16 220 0.0 0.0 0.00 0.00 0.00 54 1025.1
20260906094651 16 262 0.0 0.0 0.00 0.00 0.00 55 1025.1
20260906094147 16 222 0.0 1.6 0.00 0.00 0.00 59 1025.3
20260906093643 16 221 0.0 0.0 0.00 0.00 0.00 59 1025.0
20260906093138 16 222 0.0 0.0 0.00 0.00 0.00 60 1025.1
20260906092633 16 222 0.0 0.0 0.00 0.00 0.00 60 1025.3
20260906092132 16 223 0.0 0.0 0.00 0.00 0.00 59 1024.9
20260906090831 16 221 0.0 0.0 0.00 0.00 0.00 58 1024.9
20260906090330 16 221 0.0 0.0 0.00 0.00 0.00 58 1024.9
20260906085830 16 221 0.0 0.0 0.00 0.00 0.00 59 1024.8
20260906085330 16 221 0.0 0.0 0.00 0.00 0.00 60 1025.0
20260906084825 16 221 0.0 0.0 0.00 0.00 0.00 60 1024.8
20260906084324 16 221 0.0 0.0 0.00 0.00 0.00 60 1025.0
20260906083819 16 221 0.0 0.0 0.00 0.00 0.00 61 1025.0
20260906083314 16 220 0.0 0.0 0.00 0.00 0.00 61 1025.1
20260906082809 16 223 0.0 0.0 0.00 0.00 0.00 62 1025.3
20260906082306 16 223 0.0 0.0 0.00 0.00 0.00 61 1025.1
20260906081800 16 223 0.0 0.0 0.00 0.00 0.00 61 1025.0
20260906081255 16 223 0.0 0.0 0.00 0.00 0.00 61 1024.9
20260906080752 16 223 0.0 0.0 0.00 0.00 0.00 61 1025.1
20260906080248 16 223 0.0 0.0 0.00 0.00 0.00 61 1025.1
20260906075747 16 223 0.0 0.0 0.00 0.00 0.00 61 1025.1
20260906075247 17 223 0.0 0.0 0.00 0.00 0.00 61 1025.1
20260906074742 16 223 0.0 0.0 0.00 0.00 0.00 61 1025.3
20260906074242 17 226 0.0 0.0 0.00 0.00 0.00 61 1025.3
20260906073741 16 228 0.0 0.0 0.00 0.00 0.00 60 1025.3
20260906073236 16 229 0.0 0.0 0.00 0.00 0.00 62 1025.1
20260906072732 16 214 0.0 0.0 0.00 0.00 0.00 64 1025.3
20260906071515 16 215 1.6 1.6 0.00 0.00 0.00 65 1025.4
20260906071010 16 215 1.6 1.6 0.00 0.00 0.00 65 1025.4
20260906070507 16 222 0.0 0.0 0.00 0.00 0.00 64 1025.1
20260906070002 16 227 0.0 0.0 0.00 0.00 0.00 64 1025.3
20260906065501 17 223 0.0 0.0 0.00 0.00 0.00 63 1025.3
20260906064957 17 222 0.0 0.0 0.00 0.00 0.00 63 1025.8
20260906064453 17 210 1.6 1.6 0.00 0.00 0.00 63 1025.8
20260906063947 17 218 1.6 1.6 0.00 0.00 0.00 63 1025.6
20260906063443 17 223 0.0 0.0 0.00 0.00 0.00 62 1025.4
20260906062937 17 221 0.0 0.0 0.00 0.00 0.00 62 1025.4
20260906062432 17 230 0.0 0.0 0.00 0.00 0.00 63 1025.4
20260906061927 17 230 0.0 0.0 0.00 0.00 0.00 63 1025.4
20260906061423 17 228 0.0 0.0 0.00 0.00 0.00 63 1025.3
20260906060917 17 246 0.0 0.0 0.00 0.00 0.00 64 1025.3
20260906060415 17 241 0.0 0.0 0.00 0.00 0.00 63 1025.3
20260906055911 17 250 0.0 1.6 0.00 0.00 0.00 65 1025.1
20260906055407 17 223 0.0 0.0 0.00 0.00 0.00 65 1025.3
20260906054902 17 221 0.0 1.6 0.00 0.00 0.00 65 1025.1
20260906054356 17 227 0.0 0.0 0.00 0.00 0.00 65 1025.3
20260906053853 17 248 0.0 1.6 0.00 0.00 0.00 64 1025.3
20260906053348 17 229 0.0 0.0 0.00 0.00 0.00 63 1025.4
20260906052844 18 226 0.0 0.0 0.00 0.00 0.00 62 1025.3
20260906052340 18 222 0.0 0.0 0.00 0.00 0.00 62 1025.3
20260906051837 18 222 0.0 0.0 0.00 0.00 0.00 62 1025.0
20260906051336 18 222 0.0 0.0 0.00 0.00 0.00 62 1025.3
20260906050832 18 221 0.0 0.0 0.00 0.00 0.00 62 1025.0
20260906050327 18 221 0.0 0.0 0.00 0.00 0.00 63 1025.1
20260906045825 18 222 0.0 0.0 0.00 0.00 0.00 63 1025.1
20260906045320 18 221 0.0 0.0 0.00 0.00 0.00 63 1025.0
20260906044816 18 222 0.0 0.0 0.00 0.00 0.00 62 1025.1
20260906044311 18 220 0.0 0.0 0.00 0.00 0.00 61 1025.1
20260906043807 18 220 0.0 0.0 0.00 0.00 0.00 61 1025.5
20260906043303 18 220 0.0 0.0 0.00 0.00 0.00 60 1025.1
20260906042803 18 215 1.6 1.6 0.00 0.00 0.00 60 1025.4
20260906042302 18 218 0.0 0.0 0.00 0.00 0.00 59 1025.5
20260906041757 18 218 0.0 0.0 0.00 0.00 0.00 58 1025.3
20260906041252 18 217 0.0 0.0 0.00 0.00 0.00 57 1025.1
20260906040748 18 217 0.0 0.0 0.00 0.00 0.00 56 1025.4
20260906040243 18 217 1.6 1.6 0.00 0.00 0.00 56 1025.1
20260906035738 18 218 1.6 1.6 0.00 0.00 0.00 56 1025.4
20260906035234 18 215 0.0 1.6 0.00 0.00 0.00 54 1025.1
20260906034734 18 214 1.6 1.6 0.00 0.00 0.00 53 1025.5
20260906034229 18 214 1.6 1.6 0.00 0.00 0.00 53 1025.5
20260906033724 18 209 0.0 0.0 0.00 0.00 0.00 53 1025.6
20260906033224 18 209 0.0 0.0 0.00 0.00 0.00 52 1025.5
20260906032721 19 209 1.6 1.6 0.00 0.00 0.00 52 1025.4
20260906032221 19 231 1.6 1.6 0.00 0.00 0.00 52 1025.5
20260906031716 20 231 1.6 1.6 0.00 0.00 0.00 52 1025.6
20260906031211 20 222 1.6 1.6 0.00 0.00 0.00 52 1025.1
20260906030711 20 220 1.6 1.6 0.00 0.00 0.00 51 1025.3
20260906030206 20 204 1.6 1.6 0.00 0.00 0.00 52 1025.5
20260906025705 20 211 3.2 4.8 0.00 0.00 0.00 50 1025.3
20260906025201 20 216 1.6 1.6 0.00 0.00 0.00 50 1025.1
20260906024659 21 214 1.6 1.6 0.00 0.00 0.00 47 1025.1
20260906024159 21 211 1.6 1.6 0.00 0.00 0.00 44 1024.8
20260906023655 20 222 0.0 1.6 0.00 0.00 0.00 42 1024.8
20260906023155 20 199 3.2 4.8 0.00 0.00 0.00 42 1024.6
20260906022650 20 288 1.6 1.6 0.00 0.00 0.00 43 1024.1
20260906022145 20 224 0.0 0.0 0.00 0.00 0.00 43 1024.4
20260906021641 20 224 0.0 1.6 0.00 0.00 0.00 43 1024.3
20260906021140 20 224 0.0 0.0 0.00 0.00 0.00 42 1023.9
20260906020634 20 224 0.0 0.0 0.00 0.00 0.00 41 1023.8
20260906020129 20 224 0.0 0.0 0.00 0.00 0.00 42 1024.1
20260906015624 20 224 0.0 0.0 0.00 0.00 0.00 40 1024.0
20260906015122 20 227 0.0 0.0 0.00 0.00 0.00 41 1024.0
20260906014617 20 229 0.0 0.0 0.00 0.00 0.00 42 1024.0
20260906014114 20 230 0.0 0.0 0.00 0.00 0.00 42 1023.9
20260906013609 21 230 0.0 0.0 0.00 0.00 0.00 43 1023.9
20260906013104 21 227 0.0 0.0 0.00 0.00 0.00 40 1023.5
20260906012559 21 227 0.0 0.0 0.00 0.00 0.00 39 1023.6
20260906012058 21 228 0.0 0.0 0.00 0.00 0.00 41 1023.6
20260906011554 22 228 0.0 0.0 0.00 0.00 0.00 39 1023.8
20260906011049 22 228 0.0 0.0 0.00 0.00 0.00 36 1023.9
20260906010544 22 228 0.0 0.0 0.00 0.00 0.00 39 1023.8
20260906010040 23 228 0.0 0.0 0.00 0.00 0.00 38 1023.8
20260906005539 23 234 0.0 0.0 0.00 0.00 0.00 37 1023.9
20260906005038 23 237 1.6 1.6 0.00 0.00 0.00 36 1024.0
20260906004538 23 230 0.0 0.0 0.00 0.00 0.00 39 1024.1
20260906004033 24 220 0.0 0.0 0.00 0.00 0.00 40 1024.1
20260906003529 24 221 0.0 0.0 0.00 0.00 0.00 32 1024.1
20260906003025 23 224 0.0 0.0 0.00 0.00 0.00 33 1024.3
20260906002524 23 218 0.0 0.0 0.00 0.00 0.00 32 1024.5
20260906002019 23 224 0.0 1.6 0.00 0.00 0.00 31 1024.4
20260906001515 23 218 1.6 1.6 0.00 0.00 0.00 31 1024.4
20260906001009 23 214 1.6 1.6 0.00 0.00 0.00 31 1024.3
20260906000506 23 224 0.0 0.0 0.00 0.00 0.00 31 1024.4
20260906000000 23 223 0.0 1.6 0.00 0.00 0.00 31 1024.0
20260905235459 23 217 1.6 1.6 0.00 0.00 0.00 32 1024.0
20260905234954 23 219 0.0 0.0 0.00 0.00 0.00 33 1024.0
20260905234451 23 209 4.8 8.0 0.00 0.00 0.00 33 1024.1
20260905233950 23 220 1.6 1.6 0.00 0.00 0.00 33 1023.9
20260905233446 23 220 0.0 0.0 0.00 0.00 0.00 34 1024.1
20260905232944 23 218 1.6 1.6 0.00 0.00 0.00 34 1023.8
20260905232441 23 214 1.6 1.6 0.00 0.00 0.00 35 1024.0
20260905231936 24 222 1.6 1.6 0.00 0.00 0.00 34 1023.9
20260905231432 24 220 0.0 1.6 0.00 0.00 0.00 33 1023.9
20260905230928 24 222 1.6 1.6 0.00 0.00 0.00 32 1023.9
20260905230426 25 225 0.0 0.0 0.00 0.00 0.00 35 1023.8
20260905225925 25 219 4.8 4.8 0.00 0.00 0.00 30 1024.1
20260905225420 25 211 4.8 4.8 0.00 0.00 0.00 31 1023.5
20260905224915 25 216 1.6 1.6 0.00 0.00 0.00 29 1023.9
20260905224411 25 216 0.0 1.6 0.00 0.00 0.00 30 1024.3
20260905223905 25 186 4.8 6.4 0.00 0.00 0.00 29 1024.1
20260905223403 25 222 0.0 0.0 0.00 0.00 0.00 30 1024.4
20260905222903 25 212 1.6 1.6 0.00 0.00 0.00 30 1024.3
20260905222402 25 208 1.6 4.8 0.00 0.00 0.00 31 1024.4
20260905221858 25 209 3.2 4.8 0.00 0.00 0.00 30 1024.4
20260905221355 25 205 3.2 4.8 0.00 0.00 0.00 31 1024.1
20260905220850 25 184 4.8 8.0 0.00 0.00 0.00 30 1024.3
20260905220346 26 186 6.4 8.0 0.00 0.00 0.00 27 1024.4
20260905215845 27 195 8.0 9.7 0.00 0.00 0.00 25 1024.0